Fitchburg, MA

5:15 PM EDT on October 20, 2019 (GMT -0400)
Fitchburg Municipal

Weather History for KFIT - May, 2019

Change the Weather History Date:

Thursday, May 23, 2019

  Actual Average (KORH) Record (KORH)
Temperature  
Mean Temperature 62 °F -  
Max Temperature 73 °F 69 °F 89 °F (1964)
Min Temperature 52 °F 48 °F 32 °F (1929)
Degree Days  
Heating Degree Days 3    
Growing Degree Days 12 (Base 50)    
Moisture  
Dew Point 50 °F    
Average Humidity 70    
Maximum Humidity 87    
Minimum Humidity 44    
Precipitation  
Precipitation 0.29 in - - ()
Sea Level Pressure  
Sea Level Pressure 29.99 in    
Wind  
Wind Speed 8 mph (South)    
Max Wind Speed 16 mph    
Max Gust Speed 25 mph    
Visibility 9 miles    
Events Rain    
Averages and records for this station are not official NWS values.
T = Trace of Precipitation, MM = Missing Value Source: NWS Daily Summary

Daily Weather History Graph

Daily Weather History Graph

Search for Another Location

Airport or City:

Astronomy

May. 23, 2019 Rise Set
Actual Time 5:18 AM EDT 8:10 PM EDT
Civil Twilight 4:44 AM EDT 8:43 PM EDT
Nautical Twilight 4:02 AM EDT 9:25 PM EDT
Astronomical Twilight 3:14 AM EDT 10:14 PM EDT
Moon No Moon Rise 9:18 AM EDT (5/23)
Length of Visible Light 15h 58m
Length of Day
14h 51m
Waning Gibbous, 77% of the Moon is Illuminated
May 23
Waning Gibbous
May 26
Last Quarter
Jun 3
New
Jun 10
First Quarter
Jun 17
Full

Hourly Weather History & Observations

Time (EDT) Temp. Dew Point Humidity Pressure Visibility Wind Dir Wind Speed Gust Speed Precip Events Conditions
12:52 AM 52.0 °F 44.1 °F 74% 30.25 in 10.0 mi SE 5.8 mph - N/A   Clear
1:52 AM 53.1 °F 41.0 °F 64% 30.24 in 10.0 mi SSE 8.1 mph - N/A   Mostly Cloudy
2:52 AM 53.1 °F 42.1 °F 66% 30.25 in 10.0 mi South 5.8 mph - N/A   Overcast
3:52 AM 53.1 °F 42.1 °F 66% 30.22 in 10.0 mi South 6.9 mph - N/A   Overcast
4:52 AM 52.0 °F 43.0 °F 71% 30.22 in 10.0 mi SSE 6.9 mph - N/A   Overcast
5:52 AM 53.1 °F 44.1 °F 71% 30.22 in 10.0 mi South 5.8 mph - N/A   Overcast
6:52 AM 53.1 °F 44.1 °F 71% 30.22 in 10.0 mi SSE 3.5 mph - N/A   Overcast
7:52 AM 55.0 °F 45.0 °F 69% 30.19 in 10.0 mi SE 5.8 mph - N/A   Overcast
8:52 AM 59.0 °F 46.9 °F 64% 30.19 in 10.0 mi South 9.2 mph - N/A   Mostly Cloudy
9:52 AM 64.0 °F 46.9 °F 54% 30.16 in 10.0 mi SSW 16.1 mph 21.9 mph N/A   Scattered Clouds
10:52 AM 64.9 °F 48.9 °F 56% 30.13 in 10.0 mi SSW 13.8 mph - N/A   Overcast
11:52 AM 66.9 °F 50.0 °F 54% 30.10 in 10.0 mi SSW 13.8 mph 21.9 mph N/A   Mostly Cloudy
12:52 PM 68.0 °F 51.1 °F 55% 30.07 in 10.0 mi SW 10.4 mph 25.3 mph N/A   Overcast
1:52 PM 70.0 °F 50.0 °F 49% 30.02 in 10.0 mi SSW 13.8 mph 18.4 mph N/A   Clear
2:52 PM 72.0 °F 48.9 °F 44% 30.00 in 10.0 mi SSW 12.7 mph 19.6 mph N/A   Partly Cloudy
3:52 PM 69.1 °F 46.0 °F 44% 29.99 in 10.0 mi South 8.1 mph - N/A   Mostly Cloudy
4:52 PM 66.0 °F 50.0 °F 56% 29.96 in 10.0 mi South 5.8 mph - 0.00 in   Mostly Cloudy
5:52 PM 64.0 °F 51.1 °F 63% 29.92 in 10.0 mi South 12.7 mph - N/A   Mostly Cloudy
6:52 PM 62.1 °F 52.0 °F 70% 29.88 in 10.0 mi South 13.8 mph - N/A   Overcast
7:52 PM 61.0 °F 53.1 °F 75% 29.86 in 10.0 mi Variable 6.9 mph - 0.00 in Rain Light Rain
8:52 PM 60.1 °F 54.0 °F 80% 29.83 in 10.0 mi SSE 5.8 mph - 0.00 in   Mostly Cloudy
9:27 PM 59.0 °F 54.0 °F 83% 29.79 in 10.0 mi SSE 6.9 mph - N/A   Mostly Cloudy
9:52 PM 59.0 °F 54.0 °F 83% 29.78 in 10.0 mi SSE 4.6 mph - N/A   Mostly Cloudy
10:19 PM 60.1 °F 54.0 °F 80% 29.77 in 10.0 mi Variable 4.6 mph - N/A   Scattered Clouds
10:30 PM 60.1 °F 55.0 °F 83% 29.76 in 10.0 mi Variable 3.5 mph - N/A   Mostly Cloudy
10:52 PM 61.0 °F 55.9 °F 83% 29.76 in 10.0 mi SSE 5.8 mph - N/A   Overcast
11:19 PM 61.0 °F 57.0 °F 87% 29.79 in 1.5 mi West 8.1 mph - 0.17 in Rain Rain
11:27 PM 62.1 °F 57.9 °F 86% 29.76 in 1.0 mi SW 8.1 mph - 0.26 in Rain Rain
11:31 PM 62.1 °F 57.9 °F 86% 29.75 in 2.5 mi SSW 10.4 mph 17.3 mph 0.26 in Rain Light Rain
11:37 PM 62.1 °F 57.9 °F 86% 29.74 in 6.0 mi SW 11.5 mph - 0.27 in Rain Rain
11:52 PM 62.1 °F 57.9 °F 86% 29.72 in 10.0 mi SSW 10.4 mph - 0.29 in Rain Light Rain